| time (UTC) | temp F | wind direction | speed MPH | gust MPH | rain 1hr in | rain 24hr in | rain mn in | humidity % | barometer mb |
| 20260506142211 | 55 | 16 | 0.0 | 0.0 | 0.10 | 0.38 | 0.28 | 1007.1 | |
| 20260506141709 | 55 | 15 | 0.0 | 0.0 | 0.10 | 0.37 | 0.27 | 1007.1 | |
| 20260506141208 | 55 | 15 | 0.0 | 0.0 | 0.08 | 0.35 | 0.25 | 1007.1 | |
| 20260506140707 | 55 | 14 | 0.0 | 7.0 | 0.08 | 0.34 | 0.24 | 1007.1 | |
| 20260506140205 | 55 | 14 | 0.0 | 7.0 | 0.08 | 0.33 | 0.23 | 1007.5 | |
| 20260506135703 | 55 | 55 | 0.0 | 4.0 | 0.08 | 0.33 | 0.23 | 1007.5 | |
| 20260506135202 | 55 | 55 | 0.0 | 4.0 | 0.08 | 0.32 | 0.22 | 1007.1 | |
| 20260506134701 | 55 | 55 | 0.0 | 4.0 | 0.08 | 0.31 | 0.21 | 1006.8 | |
| 20260506134200 | 55 | 55 | 0.0 | 6.0 | 0.08 | 0.30 | 0.20 | 1006.8 | |
| 20260506133658 | 55 | 55 | 0.0 | 6.0 | 0.08 | 0.29 | 0.19 | 1006.8 | |
| 20260506133157 | 55 | 55 | 0.0 | 3.0 | 0.08 | 0.29 | 0.19 | 1006.8 | |
| 20260506132625 | 55 | 55 | 0.0 | 4.0 | 0.09 | 0.29 | 0.19 | 1006.8 | |
| 20260506132124 | 55 | 55 | 0.0 | 4.0 | 0.09 | 0.28 | 0.18 | 1006.8 | |
| 20260506131622 | 55 | 55 | 0.0 | 4.0 | 0.09 | 0.27 | 0.17 | 1006.8 | |
| 20260506131121 | 55 | 55 | 0.0 | 3.0 | 0.09 | 0.27 | 0.17 | 1006.8 | |
| 20260506130619 | 55 | 55 | 0.0 | 3.0 | 0.09 | 0.26 | 0.16 | 1006.8 | |
| 20260506130117 | 55 | 55 | 0.0 | 3.0 | 0.08 | 0.25 | 0.15 | 1006.8 | |
| 20260506125616 | 55 | 55 | 0.0 | 3.0 | 0.08 | 0.25 | 0.15 | 1007.1 | |
| 20260506125114 | 55 | 55 | 1.0 | 4.0 | 0.08 | 0.24 | 0.14 | 1007.1 | |
| 20260506124542 | 55 | 55 | 0.0 | 4.0 | 0.07 | 0.23 | 0.13 | 1007.1 | |
| 20260506124041 | 55 | 55 | 2.0 | 4.0 | 0.06 | 0.22 | 0.12 | 1007.1 | |
| 20260506123509 | 55 | 55 | 0.0 | 4.0 | 0.05 | 0.21 | 0.11 | 1007.5 | |
| 20260506122936 | 55 | 55 | 0.0 | 4.0 | 0.05 | 0.21 | 0.11 | 1007.1 | |
| 20260506122435 | 55 | 55 | 2.0 | 4.0 | 0.04 | 0.20 | 0.10 | 1007.5 | |
| 20260506121932 | 55 | 55 | 0.0 | 3.0 | 0.03 | 0.19 | 0.09 | 1007.5 | |
| 20260506121430 | 55 | 55 | 1.0 | 3.0 | 0.02 | 0.18 | 0.08 | 1007.8 | |
| 20260506120928 | 55 | 55 | 0.0 | 3.0 | 0.01 | 0.17 | 0.07 | 1007.8 | |
| 20260506120426 | 55 | 55 | 0.0 | 3.0 | 0.01 | 0.17 | 0.07 | 1007.8 | |
| 20260506115925 | 55 | 55 | 0.0 | 3.0 | 0.02 | 0.17 | 0.07 | 1007.8 | |
| 20260506115424 | 55 | 55 | 0.0 | 3.0 | 0.01 | 0.16 | 0.06 | 1007.5 | |
| 20260506114922 | 55 | 55 | 1.0 | 3.0 | 0.01 | 0.16 | 0.06 | 1007.5 | |
| 20260506114421 | 55 | 55 | 0.0 | 2.0 | 0.01 | 0.16 | 0.06 | 1006.8 | |
| 20260506113919 | 54 | 55 | 0.0 | 2.0 | 0.01 | 0.16 | 0.06 | 1007.1 | |
| 20260506113418 | 54 | 212 | 0.0 | 0.0 | 0.01 | 0.16 | 0.06 | 1007.1 | |
| 20260506112916 | 54 | 212 | 0.0 | 0.0 | 0.01 | 0.16 | 0.06 | 1006.8 | |
| 20260506112343 | 54 | 212 | 0.0 | 0.0 | 0.01 | 0.16 | 0.06 | 1006.8 | |
| 20260506111841 | 54 | 212 | 0.0 | 3.0 | 0.01 | 0.16 | 0.06 | 1007.1 | |
| 20260506111340 | 54 | 212 | 0.0 | 3.0 | 0.01 | 0.16 | 0.06 | 1007.1 | |
| 20260506110839 | 54 | 212 | 0.0 | 3.0 | 0.01 | 0.16 | 0.06 | 1007.5 | |
| 20260506110234 | 54 | 212 | 0.0 | 0.0 | 0.01 | 0.16 | 0.06 | 1007.5 | |
| 20260506105733 | 54 | 212 | 0.0 | 0.0 | 0.00 | 0.15 | 0.05 | 1007.1 | |
| 20260506105231 | 54 | 212 | 0.0 | 0.0 | 0.00 | 0.15 | 0.05 | 1007.1 | |
| 20260506104729 | 54 | 212 | 0.0 | 0.0 | 0.00 | 0.15 | 0.05 | 1007.1 | |
| 20260506104228 | 54 | 212 | 0.0 | 3.0 | 0.00 | 0.15 | 0.05 | 1007.1 | |
| 20260506103725 | 54 | 212 | 0.0 | 3.0 | 0.00 | 0.15 | 0.05 | 1007.5 | |
| 20260506103153 | 54 | 212 | 0.0 | 2.0 | 0.00 | 0.15 | 0.05 | 1007.1 | |
| 20260506102651 | 54 | 212 | 0.0 | 0.0 | 0.00 | 0.15 | 0.05 | 1007.1 | |
| 20260506102149 | 53 | 213 | 0.0 | 0.0 | 0.00 | 0.15 | 0.05 | 1007.5 | |
| 20260506101648 | 53 | 213 | 0.0 | 0.0 | 0.00 | 0.16 | 0.05 | 1007.5 | |
| 20260506101116 | 53 | 213 | 0.0 | 0.0 | 0.00 | 0.16 | 0.05 | 1007.5 | |
| 20260506100614 | 53 | 213 | 0.0 | 0.0 | 0.00 | 0.16 | 0.05 | 1007.1 | |
| 20260506100113 | 54 | 212 | 0.0 | 0.0 | 0.00 | 0.16 | 0.05 | 1006.8 | |
| 20260506095611 | 54 | 212 | 0.0 | 0.0 | 0.00 | 0.16 | 0.05 | 1006.8 | |
| 20260506095109 | 54 | 212 | 0.0 | 0.0 | 0.00 | 0.16 | 0.05 | 1006.8 | |
| 20260506094608 | 53 | 212 | 0.0 | 0.0 | 0.00 | 0.16 | 0.05 | 1006.8 | |
| 20260506094106 | 54 | 212 | 0.0 | 0.0 | 0.00 | 0.16 | 0.05 | 1006.8 | |
| 20260506093604 | 54 | 212 | 0.0 | 2.0 | 0.00 | 0.16 | 0.05 | 1006.8 | |
| 20260506093101 | 54 | 212 | 0.0 | 2.0 | 0.00 | 0.16 | 0.05 | 1006.8 | |
| 20260506092600 | 54 | 212 | 0.0 | 0.0 | 0.00 | 0.16 | 0.05 | 1006.8 | |
| 20260506092059 | 54 | 212 | 0.0 | 0.0 | 0.00 | 0.16 | 0.05 | 1006.8 | |
| 20260506091558 | 54 | 212 | 0.0 | 0.0 | 0.00 | 0.16 | 0.05 | 1006.8 | |
| 20260506091057 | 54 | 212 | 0.0 | 0.0 | 0.00 | 0.16 | 0.05 | 1006.8 | |
| 20260506090555 | 54 | 212 | 0.0 | 0.0 | 0.00 | 0.16 | 0.05 | 1006.8 | |
| 20260506090053 | 54 | 212 | 0.0 | 0.0 | 0.00 | 0.16 | 0.05 | 1007.1 | |
| 20260506085552 | 54 | 212 | 0.0 | 0.0 | 0.00 | 0.16 | 0.05 | 1006.8 | |
| 20260506085050 | 54 | 212 | 0.0 | 0.0 | 0.00 | 0.16 | 0.05 | 1006.8 | |
| 20260506084516 | 54 | 212 | 0.0 | 0.0 | 0.00 | 0.16 | 0.05 | 1007.1 | |
| 20260506084014 | 54 | 212 | 0.0 | 0.0 | 0.00 | 0.16 | 0.05 | 1007.1 | |
| 20260506083512 | 54 | 212 | 0.0 | 3.0 | 0.00 | 0.16 | 0.05 | 1007.1 | |
| 20260506083010 | 54 | 212 | 1.0 | 3.0 | 0.00 | 0.16 | 0.05 | 1007.1 | |
| 20260506082508 | 54 | 212 | 0.0 | 3.0 | 0.00 | 0.16 | 0.05 | 1007.1 | |
| 20260506082007 | 54 | 212 | 0.0 | 0.0 | 0.00 | 0.16 | 0.05 | 1007.1 | |
| 20260506081435 | 54 | 212 | 0.0 | 0.0 | 0.00 | 0.16 | 0.05 | 1007.5 | |
| 20260506080903 | 54 | 212 | 0.0 | 0.0 | 0.00 | 0.16 | 0.05 | 1007.5 | |
| 20260506080401 | 54 | 212 | 0.0 | 3.0 | 0.00 | 0.16 | 0.05 | 1007.5 | |
| 20260506073352 | 55 | 212 | 0.0 | 2.0 | 0.00 | 0.16 | 0.05 | 1007.8 | |
| 20260506072818 | 55 | 212 | 0.0 | 2.0 | 0.00 | 0.16 | 0.05 | 1007.8 | |
| 20260506072317 | 55 | 212 | 0.0 | 2.0 | 0.00 | 0.16 | 0.05 | 1007.8 | |
| 20260506071816 | 55 | 212 | 0.0 | 0.0 | 0.00 | 0.16 | 0.05 | 1007.8 | |
| 20260506071314 | 55 | 212 | 0.0 | 0.0 | 0.00 | 0.16 | 0.05 | 1007.8 | |
| 20260506070813 | 55 | 212 | 0.0 | 0.0 | 0.00 | 0.16 | 0.05 | 1007.8 | |
| 20260506070311 | 55 | 212 | 0.0 | 0.0 | 0.00 | 0.16 | 0.05 | 1007.8 | |
| 20260506062157 | 56 | 212 | 0.0 | 4.0 | 0.00 | 0.16 | 0.05 | 1008.1 | |
| 20260506061552 | 56 | 212 | 0.0 | 4.0 | 0.00 | 0.16 | 0.05 | 1008.1 | |
| 20260506061049 | 57 | 211 | 2.0 | 4.0 | 0.00 | 0.16 | 0.05 | 1008.1 | |
| 20260506060517 | 57 | 209 | 0.0 | 6.0 | 0.00 | 0.16 | 0.05 | 1008.1 | |
| 20260506051325 | 59 | 208 | 1.0 | 4.0 | 0.00 | 0.16 | 0.05 | 1008.5 | |
| 20260506050823 | 59 | 208 | 3.0 | 6.0 | 0.00 | 0.16 | 0.05 | 1008.1 | |
| 20260506050322 | 59 | 208 | 0.0 | 6.0 | 0.00 | 0.16 | 0.05 | 1008.1 | |
| 20260506044819 | 60 | 278 | 0.0 | 0.0 | 0.05 | 0.16 | 0.05 | 1008.1 | |
| 20260506044316 | 60 | 279 | 0.0 | 3.0 | 0.05 | 0.16 | 0.05 | 1008.1 | |
| 20260506043815 | 60 | 278 | 0.0 | 3.0 | 0.05 | 0.16 | 0.05 | 1008.5 | |
| 20260506043314 | 60 | 279 | 0.0 | 4.0 | 0.05 | 0.16 | 0.05 | 1008.5 | |
| 20260506042811 | 60 | 278 | 0.0 | 4.0 | 0.05 | 0.16 | 0.05 | 1008.1 | |
| 20260506042310 | 61 | 278 | 1.0 | 4.0 | 0.05 | 0.16 | 0.05 | 1008.5 | |
| 20260506041809 | 61 | 278 | 1.0 | 3.0 | 0.05 | 0.16 | 0.05 | 1008.5 | |
| 20260506041237 | 61 | 279 | 0.0 | 3.0 | 0.05 | 0.16 | 0.05 | 1008.1 | |
| 20260506040735 | 62 | 278 | 0.0 | 6.0 | 0.05 | 0.16 | 0.05 | 1008.5 | |
| 20260506040234 | 62 | 278 | 0.0 | 6.0 | 0.04 | 0.15 | 0.04 | 1008.1 | |
| 20260506035732 | 62 | 276 | 2.0 | 4.0 | 0.00 | 0.11 | 0.11 | 1008.1 | |
| 20260506035230 | 62 | 274 | 0.0 | 3.0 | 0.00 | 0.11 | 0.11 | 1008.1 | |
| 20260506034729 | 62 | 274 | 0.0 | 4.0 | 0.00 | 0.11 | 0.11 | 1008.5 | |
| 20260506034227 | 62 | 274 | 2.0 | 7.0 | 0.00 | 0.11 | 0.11 | 1008.1 | |
| 20260506033725 | 62 | 274 | 1.0 | 7.0 | 0.00 | 0.11 | 0.11 | 1008.1 | |
| 20260506033224 | 62 | 267 | 4.0 | 7.0 | 0.00 | 0.11 | 0.11 | 1008.1 | |
| 20260506032722 | 61 | 289 | 4.0 | 7.0 | 0.00 | 0.11 | 0.11 | 1008.1 | |
| 20260506032221 | 61 | 209 | 2.0 | 6.0 | 0.00 | 0.11 | 0.11 | 1008.1 | |
| 20260506031649 | 61 | 183 | 0.0 | 4.0 | 0.00 | 0.11 | 0.11 | 1008.1 | |
| 20260506031116 | 61 | 183 | 2.0 | 4.0 | 0.00 | 0.11 | 0.11 | 1008.1 | |
| 20260506030543 | 60 | 183 | 0.0 | 3.0 | 0.00 | 0.11 | 0.11 | 1008.1 | |
| 20260506030042 | 60 | 183 | 0.0 | 0.0 | 0.00 | 0.11 | 0.11 | 1007.8 | |
| 20260506025540 | 60 | 183 | 0.0 | 0.0 | 0.00 | 0.11 | 0.11 | 1007.8 | |
| 20260506025037 | 60 | 183 | 0.0 | 0.0 | 0.00 | 0.11 | 0.11 | 1007.8 | |
| 20260506024536 | 60 | 183 | 0.0 | 0.0 | 0.00 | 0.11 | 0.11 | 1008.1 | |
| 20260506024034 | 60 | 183 | 0.0 | 0.0 | 0.00 | 0.11 | 0.11 | 1008.1 | |
| 20260506023533 | 60 | 183 | 0.0 | 0.0 | 0.00 | 0.11 | 0.11 | 1007.8 | |
| 20260506023031 | 60 | 183 | 0.0 | 0.0 | 0.00 | 0.11 | 0.11 | 1007.8 | |
| 20260506022529 | 60 | 183 | 0.0 | 0.0 | 0.00 | 0.11 | 0.11 | 1007.8 | |
| 20260506022029 | 60 | 183 | 0.0 | 0.0 | 0.00 | 0.11 | 0.11 | 1007.8 | |
| 20260506021527 | 60 | 183 | 0.0 | 0.0 | 0.00 | 0.11 | 0.11 | 1007.8 | |
| 20260506021026 | 60 | 183 | 0.0 | 0.0 | 0.00 | 0.11 | 0.11 | 1007.8 | |
| 20260506020524 | 60 | 183 | 0.0 | 0.0 | 0.00 | 0.11 | 0.11 | 1007.8 | |
| 20260506020023 | 60 | 183 | 0.0 | 0.0 | 0.00 | 0.11 | 0.11 | 1007.8 | |
| 20260506015522 | 60 | 183 | 0.0 | 0.0 | 0.00 | 0.11 | 0.11 | 1007.8 | |
| 20260506015020 | 61 | 183 | 0.0 | 3.0 | 0.00 | 0.11 | 0.11 | 1007.5 | |
| 20260506014518 | 61 | 183 | 0.0 | 3.0 | 0.00 | 0.11 | 0.11 | 1007.5 | |
| 20260506014015 | 61 | 183 | 0.0 | 3.0 | 0.00 | 0.11 | 0.11 | 1007.5 | |
| 20260506013514 | 61 | 183 | 0.0 | 3.0 | 0.00 | 0.11 | 0.11 | 1007.5 | |
| 20260506013013 | 61 | 183 | 0.0 | 0.0 | 0.00 | 0.11 | 0.11 | 1007.1 | |
| 20260506012511 | 61 | 183 | 0.0 | 0.0 | 0.00 | 0.11 | 0.11 | 1007.1 | |
| 20260506012010 | 61 | 183 | 0.0 | 0.0 | 0.00 | 0.11 | 0.11 | 1007.1 | |
| 20260506011438 | 62 | 183 | 0.0 | 4.0 | 0.00 | 0.11 | 0.11 | 1007.1 | |
| 20260506010936 | 62 | 183 | 0.0 | 4.0 | 0.00 | 0.11 | 0.11 | 1006.8 | |
| 20260506010435 | 62 | 183 | 0.0 | 4.0 | 0.00 | 0.11 | 0.11 | 1006.8 | |
| 20260506005934 | 62 | 183 | 0.0 | 3.0 | 0.00 | 0.11 | 0.11 | 1006.8 | |
| 20260506005432 | 62 | 183 | 0.0 | 3.0 | 0.00 | 0.11 | 0.11 | 1006.8 | |
| 20260506004931 | 62 | 183 | 0.0 | 3.0 | 0.00 | 0.11 | 0.11 | 1007.1 | |
| 20260506004430 | 62 | 183 | 1.0 | 6.0 | 0.00 | 0.11 | 0.11 | 1007.1 | |
| 20260506003857 | 62 | 183 | 0.0 | 6.0 | 0.00 | 0.11 | 0.11 | 1006.8 | |
| 20260506003354 | 62 | 178 | 2.0 | 6.0 | 0.00 | 0.11 | 0.11 | 1006.8 | |
| 20260506002853 | 61 | 178 | 3.0 | 6.0 | 0.00 | 0.11 | 0.11 | 1006.8 | |
| 20260506002320 | 62 | 178 | 1.0 | 3.0 | 0.00 | 0.11 | 0.11 | 1006.4 | |
| 20260506001818 | 62 | 178 | 0.0 | 3.0 | 0.00 | 0.11 | 0.11 | 1006.1 | |
| 20260506001317 | 62 | 178 | 0.0 | 0.0 | 0.00 | 0.11 | 0.11 | 1006.1 | |
| 20260506000642 | 62 | 178 | 0.0 | 3.0 | 0.00 | 0.11 | 0.11 | 1006.1 | |
| 20260506000140 | 63 | 178 | 0.0 | 3.0 | 0.00 | 0.11 | 0.11 | 1006.1 | |
| 20260505235608 | 63 | 178 | 1.0 | 3.0 | 0.00 | 0.11 | 0.11 | 1006.1 | |
| 20260505235107 | 63 | 178 | 0.0 | 3.0 | 0.00 | 0.11 | 0.11 | 1006.1 | |
| 20260505234606 | 64 | 178 | 0.0 | 3.0 | 0.00 | 0.11 | 0.11 | 1006.1 | |
| 20260505234105 | 64 | 178 | 1.0 | 4.0 | 0.00 | 0.11 | 0.11 | 1006.1 | |
| 20260505233604 | 64 | 178 | 0.0 | 6.0 | 0.00 | 0.11 | 0.11 | 1006.1 | |
| 20260505233103 | 64 | 178 | 3.0 | 6.0 | 0.00 | 0.11 | 0.11 | 1006.1 | |
| 20260505232600 | 65 | 184 | 4.0 | 6.0 | 0.00 | 0.11 | 0.11 | 1006.1 | |
| 20260505232059 | 65 | 224 | 2.0 | 6.0 | 0.00 | 0.11 | 0.11 | 1005.8 | |
| 20260505231558 | 65 | 251 | 2.0 | 6.0 | 0.00 | 0.11 | 0.11 | 1005.8 | |
| 20260505231057 | 65 | 222 | 1.0 | 9.0 | 0.00 | 0.11 | 0.11 | 1005.4 | |
| 20260505230554 | 65 | 280 | 3.0 | 10.0 | 0.00 | 0.11 | 0.11 | 1005.4 | |
| 20260505230052 | 65 | 280 | 1.0 | 10.0 | 0.00 | 0.11 | 0.11 | 1005.1 | |
| 20260505225551 | 65 | 257 | 4.0 | 12.0 | 0.00 | 0.11 | 0.11 | 1005.1 | |
| 20260505224947 | 65 | 251 | 3.0 | 12.0 | 0.00 | 0.11 | 0.11 | 1005.1 | |
| 20260505224446 | 65 | 259 | 4.0 | 19.0 | 0.00 | 0.11 | 0.11 | 1005.1 | |
| 20260505223913 | 65 | 270 | 5.0 | 19.0 | 0.00 | 0.11 | 0.11 | 1005.1 | |
| 20260505223412 | 65 | 283 | 8.0 | 22.0 | 0.00 | 0.11 | 0.11 | 1005.1 | |
| 20260505222910 | 65 | 266 | 7.0 | 22.0 | 0.00 | 0.11 | 0.11 | 1005.4 | |
| 20260505222408 | 66 | 262 | 7.0 | 22.0 | 0.00 | 0.11 | 0.11 | 1005.4 | |
| 20260505221907 | 66 | 272 | 11.0 | 20.0 | 0.00 | 0.11 | 0.11 | 1005.4 | |
| 20260505221405 | 66 | 282 | 7.0 | 19.0 | 0.00 | 0.11 | 0.11 | 1005.4 | |
| 20260505220832 | 67 | 279 | 10.0 | 20.0 | 0.00 | 0.11 | 0.11 | 1005.8 | |
| 20260505220332 | 67 | 277 | 7.0 | 20.0 | 0.00 | 0.11 | 0.11 | 1005.8 | |
| 20260505215830 | 68 | 279 | 7.0 | 22.0 | 0.00 | 0.11 | 0.11 | 1005.8 | |
| 20260505215329 | 68 | 277 | 12.0 | 22.0 | 0.00 | 0.11 | 0.11 | 1005.8 | |
| 20260505214828 | 68 | 264 | 8.0 | 22.0 | 0.00 | 0.11 | 0.11 | 1005.8 | |
| 20260505214327 | 68 | 269 | 8.0 | 20.0 | 0.00 | 0.11 | 0.11 | 1005.4 | |
| 20260505213825 | 68 | 270 | 8.0 | 20.0 | 0.00 | 0.11 | 0.11 | 1005.1 | |
| 20260505213322 | 68 | 282 | 9.0 | 18.0 | 0.00 | 0.11 | 0.11 | 1004.7 | |
| 20260505212821 | 68 | 322 | 5.0 | 15.0 | 0.00 | 0.11 | 0.11 | 1004.4 | |
| 20260505212319 | 69 | 288 | 6.0 | 19.0 | 0.00 | 0.11 | 0.11 | 1004.4 | |
| 20260505211817 | 69 | 275 | 7.0 | 31.0 | 0.00 | 0.11 | 0.11 | 1004.7 | |
| 20260505211316 | 69 | 267 | 7.0 | 31.0 | 0.00 | 0.11 | 0.11 | 1004.7 | |
| 20260505210814 | 70 | 293 | 10.0 | 31.0 | 0.00 | 0.11 | 0.11 | 1004.7 | |
| 20260505210312 | 70 | 284 | 4.0 | 24.0 | 0.00 | 0.11 | 0.11 | 1004.7 | |
| 20260505205811 | 70 | 284 | 11.0 | 24.0 | 0.00 | 0.11 | 0.11 | 1004.7 | |
| 20260505205310 | 70 | 281 | 6.0 | 16.0 | 0.00 | 0.11 | 0.11 | 1004.4 | |
| 20260505204807 | 71 | 284 | 4.0 | 10.0 | 0.00 | 0.11 | 0.11 | 1004.1 | |
| 20260505204306 | 71 | 272 | 5.0 | 10.0 | 0.01 | 0.11 | 0.11 | 1003.7 | |
| 20260505203805 | 70 | 319 | 1.0 | 7.0 | 0.05 | 0.11 | 0.11 | 1003.4 | |
| 20260505203304 | 70 | 256 | 3.0 | 9.0 | 0.10 | 0.11 | 0.11 | 1003.4 | |
| 20260505202730 | 69 | 285 | 3.0 | 9.0 | 0.10 | 0.11 | 0.11 | 1003.4 | |
| 20260505202229 | 68 | 265 | 2.0 | 7.0 | 0.10 | 0.11 | 0.11 | 1003.4 | |
| 20260505201727 | 67 | 286 | 0.0 | 7.0 | 0.10 | 0.11 | 0.11 | 1003.7 | |
| 20260505201155 | 67 | 285 | 3.0 | 9.0 | 0.10 | 0.11 | 0.11 | 1003.7 | |
| 20260505200450 | 66 | 257 | 3.0 | 9.0 | 0.10 | 0.11 | 0.11 | 1003.7 | |
| 20260505195948 | 66 | 265 | 4.0 | 9.0 | 0.10 | 0.11 | 0.11 | 1003.7 | |
| 20260505195445 | 66 | 278 | 0.0 | 10.0 | 0.10 | 0.11 | 0.11 | 1003.4 | |
| 20260505194944 | 67 | 322 | 1.0 | 32.0 | 0.10 | 0.11 | 0.11 | 1003.7 | |
| 20260505194443 | 70 | 317 | 2.0 | 32.0 | 0.09 | 0.10 | 0.10 | 1003.7 | |
| 20260505193939 | 75 | 310 | 6.0 | 32.0 | 0.07 | 0.08 | 0.08 | 1004.1 | |
| 20260505193438 | 77 | 290 | 8.0 | 19.0 | 0.00 | 0.01 | 0.01 | 1004.1 | |
| 20260505192937 | 78 | 263 | 6.0 | 19.0 | 0.00 | 0.01 | 0.01 | 1003.0 | |
| 20260505192436 | 79 | 281 | 7.0 | 22.0 | 0.00 | 0.01 | 0.01 | 1002.7 | |
| 20260505191935 | 81 | 276 | 8.0 | 25.0 | 0.00 | 0.01 | 0.01 | 1002.7 | |
| 20260505191434 | 82 | 249 | 9.0 | 25.0 | 0.00 | 0.01 | 0.01 | 1002.7 | |
| 20260505190933 | 82 | 215 | 6.0 | 20.0 | 0.00 | 0.01 | 0.01 | 1002.4 | |
| 20260505190431 | 82 | 229 | 7.0 | 20.0 | 0.00 | 0.01 | 0.01 | 1002.0 | |
| 20260505185929 | 82 | 237 | 9.0 | 20.0 | 0.00 | 0.01 | 0.01 | 1002.4 | |
| 20260505185427 | 83 | 229 | 8.0 | 25.0 | 0.00 | 0.01 | 0.01 | 1002.4 | |
| 20260505184923 | 83 | 230 | 8.0 | 25.0 | 0.00 | 0.01 | 0.01 | 1002.0 | |
| 20260505184351 | 83 | 220 | 11.0 | 25.0 | 0.00 | 0.01 | 0.01 | 1002.0 | |
| 20260505183850 | 83 | 229 | 7.0 | 22.0 | 0.00 | 0.01 | 0.01 | 1002.4 | |
| 20260505183348 | 83 | 221 | 12.0 | 25.0 | 0.00 | 0.01 | 0.01 | 1002.4 | |
| 20260505182815 | 83 | 234 | 9.0 | 25.0 | 0.00 | 0.01 | 0.01 | 1002.4 | |
| 20260505182314 | 83 | 206 | 10.0 | 25.0 | 0.00 | 0.01 | 0.01 | 1002.4 | |
| 20260505181813 | 84 | 220 | 9.0 | 22.0 | 0.00 | 0.01 | 0.01 | 1002.7 | |
| 20260505181311 | 83 | 233 | 9.0 | 22.0 | 0.00 | 0.01 | 0.01 | 1002.4 | |
| 20260505180808 | 82 | 207 | 10.0 | 20.0 | 0.00 | 0.01 | 0.01 | 1002.4 | |
| 20260505180307 | 82 | 231 | 5.0 | 18.0 | 0.00 | 0.01 | 0.01 | 1002.4 | |
| 20260505175805 | 81 | 238 | 5.0 | 15.0 | 0.00 | 0.01 | 0.01 | 1002.7 | |
| 20260505175305 | 80 | 175 | 6.0 | 19.0 | 0.00 | 0.01 | 0.01 | 1002.7 | |
| 20260505174800 | 80 | 186 | 7.0 | 19.0 | 0.00 | 0.01 | 0.01 | 1003.0 | |
| 20260505174259 | 81 | 167 | 11.0 | 19.0 | 0.00 | 0.01 | 0.01 | 1003.0 | |
| 20260505173758 | 81 | 176 | 8.0 | 16.0 | 0.00 | 0.01 | 0.01 | 1003.0 | |
| 20260505173225 | 80 | 201 | 6.0 | 15.0 | 0.00 | 0.01 | 0.01 | 1003.0 | |
| 20260505172718 | 78 | 200 | 6.0 | 16.0 | 0.00 | 0.01 | 0.01 | 1003.0 | |
| 20260505172217 | 78 | 193 | 4.0 | 16.0 | 0.00 | 0.01 | 0.01 | 1003.4 | |
| 20260505171715 | 78 | 163 | 5.0 | 19.0 | 0.00 | 0.01 | 0.01 | 1003.4 | |
| 20260505171141 | 78 | 190 | 2.0 | 19.0 | 0.00 | 0.01 | 0.01 | 1003.4 | |
| 20260505170638 | 79 | 178 | 6.0 | 15.0 | 0.00 | 0.01 | 0.01 | 1003.4 | |
| 20260505170137 | 79 | 185 | 3.0 | 12.0 | 0.00 | 0.01 | 0.01 | 1003.7 | |
| 20260505165604 | 79 | 186 | 5.0 | 12.0 | 0.00 | 0.01 | 0.01 | 1003.7 | |
| 20260505165103 | 80 | 199 | 5.0 | 16.0 | 0.00 | 0.01 | 0.01 | 1003.7 | |
| 20260505164602 | 81 | 195 | 6.0 | 16.0 | 0.00 | 0.01 | 0.01 | 1003.7 | |
| 20260505164101 | 81 | 187 | 6.0 | 15.0 | 0.00 | 0.01 | 0.01 | 1003.7 | |
| 20260505163558 | 81 | 172 | 6.0 | 19.0 | 0.00 | 0.01 | 0.01 | 1003.7 | |
| 20260505163058 | 81 | 233 | 6.0 | 20.0 | 0.00 | 0.01 | 0.01 | 1003.7 | |
| 20260505162525 | 81 | 161 | 6.0 | 20.0 | 0.00 | 0.01 | 0.01 | 1003.7 | |
| 20260505162024 | 81 | 184 | 5.0 | 16.0 | 0.00 | 0.01 | 0.01 | 1004.1 | |
| 20260505161452 | 81 | 241 | 4.0 | 12.0 | 0.00 | 0.01 | 0.01 | 1004.1 | |
| 20260505160951 | 80 | 232 | 5.0 | 15.0 | 0.00 | 0.01 | 0.01 | 1004.1 | |
| 20260505160450 | 79 | 171 | 1.0 | 16.0 | 0.00 | 0.01 | 0.01 | 1004.4 | |
| 20260505152905 | 76 | 172 | 5.0 | 15.0 | 0.00 | 0.01 | 0.01 | 1005.1 | |
| 20260505152403 | 76 | 167 | 7.0 | 15.0 | 0.00 | 0.01 | 0.01 | 1005.1 | |
| 20260505151900 | 76 | 166 | 4.0 | 12.0 | 0.00 | 0.01 | 0.01 | 1005.1 | |
| 20260505151359 | 75 | 193 | 5.0 | 10.0 | 0.00 | 0.01 | 0.01 | 1005.4 | |
| 20260505150857 | 74 | 230 | 3.0 | 9.0 | 0.00 | 0.01 | 0.01 | 1005.4 | |
| 20260505150356 | 73 | 211 | 3.0 | 7.0 | 0.00 | 0.01 | 0.01 | 1005.4 |